TimeCDT,TemperatureF,Dew PointF,Humidity,Sea Level PressureIn,VisibilityMPH,Wind Direction,Wind SpeedMPH,Gust SpeedMPH,PrecipitationIn,Events,Conditions,WindDirDegrees,DateUTC
12:58 AM,79.7,67.1,65,29.96,10.0,South,10.4,-,N/A,,Clear,190,2013-06-21 05:58:00
1:58 AM,78.3,67.3,69,29.95,10.0,SSE,10.4,-,N/A,,Clear,160,2013-06-21 06:58:00
2:58 AM,79.0,66.6,66,29.93,10.0,SSE,12.7,-,N/A,,Clear,150,2013-06-21 07:58:00
3:58 AM,77.7,66.6,68,29.87,10.0,SSE,12.7,-,N/A,,Clear,150,2013-06-21 08:58:00
4:58 AM,76.5,66.2,70,29.88,10.0,South,6.9,-,N/A,,Partly Cloudy,180,2013-06-21 09:58:00
5:58 AM,73.9,65.8,76,29.89,10.0,SE,6.9,-,N/A,,Clear,140,2013-06-21 10:58:00
6:58 AM,75.9,66.2,72,29.91,10.0,SSE,10.4,-,N/A,,Overcast,160,2013-06-21 11:58:00
7:58 AM,77.4,66.9,70,29.98,10.0,SSE,8.1,-,N/A,,Partly Cloudy,150,2013-06-21 12:58:00
8:58 AM,81.3,68.4,65,29.94,10.0,South,16.1,-,N/A,,Clear,180,2013-06-21 13:58:00
9:58 AM,86.4,69.1,56,29.95,10.0,South,15.0,-,N/A,,Clear,190,2013-06-21 14:58:00
10:58 AM,87.6,69.1,54,29.96,10.0,SSW,20.7,24.2,N/A,,Partly Cloudy,200,2013-06-21 15:58:00
11:58 AM,90.5,70.0,51,29.96,10.0,South,15.0,23.0,N/A,,Partly Cloudy,190,2013-06-21 16:58:00
12:58 PM,92.1,69.8,48,29.95,10.0,South,16.1,26.5,N/A,,Clear,190,2013-06-21 17:58:00
1:58 PM,93.9,66.9,41,29.93,10.0,South,21.9,28.8,N/A,,Scattered Clouds,170,2013-06-21 18:58:00
2:58 PM,94.8,64.4,36,29.91,10.0,South,20.7,29.9,N/A,,Scattered Clouds,180,2013-06-21 19:58:00
3:58 PM,96.4,66.0,37,29.89,10.0,South,23.0,29.9,N/A,,Clear,170,2013-06-21 20:58:00
4:58 PM,96.6,64.0,34,29.87,10.0,SSE,20.7,28.8,N/A,,Mostly Cloudy,160,2013-06-21 21:58:00
5:58 PM,95.9,62.4,33,29.85,10.0,South,20.7,-,N/A,,Clear,170,2013-06-21 22:58:00
6:58 PM,95.0,62.2,34,29.85,10.0,South,18.4,27.6,N/A,,Partly Cloudy,170,2013-06-21 23:58:00
7:58 PM,92.8,61.9,36,29.84,10.0,SSE,18.4,27.6,N/A,,Clear,150,2013-06-22 00:58:00
8:58 PM,88.7,62.8,42,29.85,10.0,SE,13.8,-,N/A,,Clear,140,2013-06-22 01:58:00
9:58 PM,85.1,63.7,49,29.85,10.0,SE,13.8,-,N/A,,Clear,140,2013-06-22 02:58:00
10:58 PM,83.3,63.7,51,29.87,10.0,SE,16.1,-,N/A,,Clear,130,2013-06-22 03:58:00
11:58 PM,82.6,64.2,54,29.88,10.0,SSE,15.0,-,N/A,,Clear,150,2013-06-22 04:58:00